Dobrotvir

Ukraine / Lviv District     50˚12′19″N   24˚23′06″E
temp.,
°C
wind,
m/s
gust,
m/s
humid.,
%
clouds,
%
prec.,
mm/h
press.,
hPa
HPBL,
m
3 december, thu
thu323:00−1˚sse4783100 0.0 1024621
02:00−2˚se488395 0.0 1023551
05:00−1˚se4987100 0.0 1022476
08:00−1˚se698689 0.0 1021516
11:00se6108168 0.0 1020517
14:00+2˚se6117966 0.0 1018547
17:00se5128883 0.0 1017447
20:00se6138979 0.0 1016437
4 december, fri
fri423:00se5149063 0.0 1016464
02:00se5139073 0.0 1015453
05:00se61591100 0.0 1013462
08:00+1˚se6139081 0.0 1013449
11:00+3˚se7138376 0.0 1012545
14:00+5˚se6148448 0.0 1011606
17:00+3˚se5139019 0.0 1011341
20:00+3˚se5139012 0.0 1012358
5 december, sat
sat523:00+4˚se614890 0.0 1012345
02:00+4˚sse516910 0.0 1013387
05:00+4˚sse514920 0.0 1013383
08:00+5˚se5149322 0.0 1014423
11:00+8˚sse7158841 0.0 1015580
14:00+9˚sse6138350 0.0 1016622
17:00+7˚se516892 0.0 1016493
20:00+7˚se515894 0.0 1017548
6 december, sun
sun623:00+6˚se6158915 0.0 1018551
02:00+6˚se5148916 0.0 1019531
05:00+5˚se6158821 0.0 1020535
08:00+5˚se7158537 0.0 1020637
11:00+5˚se9147896 0.0 1021801
14:00+5˚se9147375 0.0 1020799
17:00+2˚ese816780 0.0 1020718
20:00+1˚se918700 0.0 1021747
7 december, mon
mon723:00se917690 0.0 1020772
02:00se918670 0.0 1020806
05:00se919660 0.0 1019835
08:00se918680 0.0 1020856
11:00+2˚se10166566 0.0 1020956
14:00+2˚se9156562 0.0 1020992
17:00+1˚se8156975 0.0 1021882
20:00−1˚se8156783 0.0 1021777